Location: Unspecified
(57.6483°N, 3.3184°W)
Time: 10:43:35
(UTC+00:00)

Envisat - Visible Passes

Search period start: 27 February 2021 00:00
Search period end: 09 March 2021 00:00
Orbit: 764 x 766 km, 98.1° (Epoch: 26 February)

Date Brightness Start Highest point End Pass type
(mag) Time Alt. Az. Time Alt. Az. Time Alt. Az.
27 Feb 6.3 04:09:36 10° ENE 04:10:40 11° ENE 04:11:43 10° E visible
27 Feb 4.0 05:45:58 10° NNE 05:50:57 51° E 05:55:54 10° S visible
27 Feb 6.5 18:52:28 10° WSW 18:54:21 12° W 18:56:17 10° WNW visible
28 Feb 5.1 05:09:24 10° NNE 05:13:50 29° E 05:18:13 10° SSE visible
01 Mar 6.0 04:33:20 10° NE 04:36:31 16° E 04:39:42 10° ESE visible
01 Mar 3.3 06:11:18 10° NNE 06:16:26 77° ESE 06:21:31 10° SSW visible
02 Mar 4.4 05:34:35 10° NNE 05:39:27 43° E 05:44:17 10° S visible
02 Mar 6.3 18:40:00 10° WSW 18:42:44 14° W 18:45:29 10° NW visible
03 Mar 5.4 04:58:07 10° NE 05:02:17 24° E 05:06:24 10° SE visible
04 Mar 6.1 04:22:20 10° NE 04:24:55 14° E 04:27:28 10° ESE visible
04 Mar 3.6 05:59:53 10° NNE 06:04:59 65° ESE 06:10:02 10° S visible
05 Mar 4.7 05:23:14 10° NNE 05:27:56 36° E 05:32:36 10° SSE visible
05 Mar 6.2 18:27:49 10° SW 18:31:08 17° W 18:34:27 10° NW visible
06 Mar 5.7 04:46:54 10° NE 04:50:43 21° E 04:54:30 10° SE visible
07 Mar 6.3 04:11:41 10° ENE 04:13:17 11° E 04:14:53 10° E visible
07 Mar 3.9 05:48:29 10° NNE 05:53:30 54° E 05:58:29 10° S visible
07 Mar 6.7 18:55:29 10° W 18:56:59 11° WNW 18:58:28 10° WNW visible
08 Mar 5.1 05:11:54 10° NNE 05:16:24 31° E 05:20:53 10° SSE visible
